Theta_e
326 326 325 325 325 327 327 326 327 328 328 326 325 325 324 323 324 325 324 322 320 323 324 322 322 325 320 320 320 320 320 322 321 323 327 331 334 333 333 334 331 336 335
325 325 325 325 326 326 326 327 328 327 328 327 326 324 324 322 324 321 319 318 317 318 320 322 320 320 323 326 319 324 320 324 318 320 322 325 335 335 335 335 332 331 333
324 324 324 325 325 328 328 328 328 327 327 326 325 324 320 321 320 320 319 316 316 317 319 320 320 319 317 317 318 318 317 319 322 318 318 324 326 326 326 334 329 333 338
323 322 322 325 324 323 323 323 321 320 320 320 320 318 319 317 317 317 317 315 315 316 320 319 320 318 319 316 317 317 319 317 318 318 319 319 324 329 326 320 319 325 324
323 320 322 322 321 317 316 317 318 314 313 315 314 315 316 316 310 313 315 313 314 316 318 317 319 319 314 314 313 316 316 314 314 313 313 315 318 318 317 317 314 318 321
322 320 319 317 320 318 317 317 316 316 314 314 315 315 315 315 303 304 307 311 313 314 314 315 317 317 315 315 313 313 313 314 314 312 311 312 316 317 317 315 313 312 310
318 316 316 317 315 314 315 315 315 316 317 315 315 314 314 315 301 301 303 310 311 313 314 311 310 311 313 313 310 310 311 313 311 314 314 315 314 317 317 315 315 312 311
317 314 315 314 313 314 313 313 314 312 312 311 313 312 313 313 301 300 301 311 312 312 312 311 311 311 302 304 307 307 309 311 315 315 316 315 316 316 315 315 316 316 316
313 313 313 310 310 311 311 311 313 312 311 311 310 309 309 311 300 299 302 308 308 309 310 311 310 310 298 298 306 305 307 308 309 308 306 305 303 302 306 311 310 309 308
310 311 311 311 310 309 310 310 310 309 308 309 308 309 307 309 298 298 301 304 304 303 307 309 300 303 298 298 305 305 304 306 307 308 310 311 310 315 307 313 313 310 310
311 311 310 309 308 311 310 310 309 308 308 308 308 309 309 307 307 299 298 303 302 302 303 305 307 298 297 297 296 306 303 302 305 308 308 310 312 312 314 317 318 315 313
310 308 307 308 307 306 309 309 309 310 307 306 306 305 304 305 300 299 298 298 300 303 303 305 305 296 296 296 298 296 297 298 307 305 305 305 306 306 307 310 314 315 315
307 307 309 308 307 306 307 306 306 306 303 302 300 300 300 301 303 300 298 297 300 302 306 302 298 297 296 298 299 298 297 304 304 302 303 302 304 306 309 310 310 314 315
307 308 308 306 305 306 304 304 303 302 300 300 299 298 299 301 301 302 300 302 302 304 303 305 303 300 298 300 301 302 302 302 300 301 301 302 304 303 303 305 305 307 307
307 309 308 306 304 305 305 305 303 304 299 299 299 299 298 297 298 296 296 298 301 299 298 305 304 302 300 301 300 300 301 300 300 300 301 300 300 301 300 303 302 303 301
306 306 304 304 304 303 303 303 295 296 296 296 294 295 300 296 293 292 292 292 292 293 298 302 301 299 297 297 297 297 299 299 299 300 302 301 300 298 298 300 300 299 299
307 305 304 302 303 304 303 301 301 298 296 296 295 295 294 293 292 292 292 292 293 295 302 301 299 297 296 296 296 297 297 299 301 300 300 302 301 299 298 300 301 299 298
306 298 304 305 303 303 304 302 302 302 301 302 294 297 295 293 293 293 292 294 302 301 299 299 297 297 296 295 296 296 298 299 299 300 300 300 301 300 300 299 298 297 297
305 305 305 305 305 303 305 304 303 303 302 301 302 296 296 293 293 293 294 302 301 299 299 299 299 298 297 296 295 297 298 298 298 299 299 299 300 299 299 299 299 291 293
306 301 298 305 305 303 303 302 303 302 302 301 300 299 297 298 299 300 301 301 300 300 299 299 299 299 299 298 297 297 297 297 297 297 298 299 299 299 298 298 298 298 299
306 306 294 304 305 303 302 302 302 302 302 301 300 296 286 297 299 299 299 299 299 299 299 299 299 299 299 299 298 297 296 296 296 296 297 297 298 298 299 298 298 299 299
306 306 305 304 304 304 302 302 302 302 301 300 300 297 287 298 299 299 299 299 300 300 300 300 300 300 299 298 298 297 295 295 294 294 295 295 296 298 298 298 298 298 298
306 305 304 304 305 297 302 303 302 301 300 300 300 299 300 300 300 300 300 301 301 301 300 300 299 299 300 299 299 298 295 293 291 292 293 294 295 296 297 297 297 296 297
306 305 304 303 304 302 302 302 302 294 299 300 300 300 301 301 300 300 301 302 301 301 301 300 300 299 299 299 298 297 295 291 290 291 291 292 293 295 297 297 296 296 294
306 304 304 304 303 302 303 302 302 302 302 301 300 300 301 301 301 301 302 302 302 301 301 301 301 300 300 299 299 296 289 284 287 284 290 291 294 296 297 297 295 295 294
307 305 304 303 303 303 303 302 302 302 302 301 301 301 301 301 301 301 302 302 302 302 302 302 302 301 301 300 296 287 285 284 286 284 287 291 295 297 297 296 295 295 295
Wind_Speed
6 5 4 4 3 1 3 5 5 6 7 9 9 10 10 9 9 9 11 12 13 11 10 10 10 9 7 10 9 10 10 7 8 10 8 8 6 5 5 4 6 8 4
6 5 4 4 4 4 5 7 8 9 11 11 10 8 9 9 9 11 13 12 14 14 13 11 9 11 9 9 8 11 11 11 10 12 10 9 7 5 7 5 7 5 5
7 6 6 5 6 4 5 8 9 11 11 11 12 11 9 11 11 11 11 13 15 14 14 9 9 10 9 8 8 10 11 11 11 10 11 8 4 7 8 5 6 7 5
2 3 3 4 6 7 7 8 8 8 9 11 11 11 11 11 10 9 10 12 14 14 12 11 11 10 7 6 9 10 9 11 11 11 10 9 3 3 3 8 9 8 7
9 13 10 9 8 6 2 4 6 5 5 5 7 7 7 10 6 8 10 12 13 14 10 11 9 10 5 7 7 9 10 11 10 8 10 9 7 10 7 5 4 10 9
5 7 5 5 1 3 4 5 7 7 8 9 10 11 11 8 6 8 9 9 14 14 9 9 11 5 5 5 6 11 12 11 13 10 10 9 8 9 8 9 9 10 11
6 5 5 2 5 6 9 9 8 9 9 10 11 11 10 8 5 8 10 10 12 12 10 8 9 11 12 10 13 16 15 8 10 10 11 10 12 9 9 10 10 11 11
4 5 4 7 4 7 8 6 7 8 7 7 8 8 9 6 6 8 12 12 12 12 11 10 9 6 9 10 12 14 16 15 12 7 9 11 10 9 10 10 11 12 12
5 4 4 8 9 10 10 10 9 9 9 8 7 7 7 9 6 7 12 12 12 13 10 9 8 7 9 11 11 13 15 14 13 10 12 13 11 12 13 10 11 11 10
5 8 6 7 10 11 8 9 9 7 9 11 8 6 5 9 4 5 9 10 9 9 11 10 11 9 8 6 10 12 11 12 14 16 16 13 12 15 18 12 12 11 10
6 5 11 10 8 8 9 7 8 8 8 8 10 11 10 9 5 4 7 10 10 10 10 8 2 3 7 8 7 10 11 12 14 12 10 9 10 4 6 5 6 7 8
7 7 6 6 7 7 7 8 9 9 8 9 8 8 5 4 9 3 6 6 9 10 10 8 8 11 11 11 10 6 9 11 9 10 10 9 7 6 7 10 9 7 9
2 3 2 6 6 7 5 8 7 6 8 10 10 9 9 8 10 4 8 10 11 9 8 7 10 14 16 13 15 13 10 6 5 6 9 8 8 10 11 10 9 11 10
4 4 5 5 6 5 5 5 8 8 10 10 9 8 10 9 6 9 9 11 10 8 11 9 11 12 13 13 12 8 5 6 8 7 5 5 7 7 9 8 9 10 8
3 3 3 3 3 4 4 4 5 7 5 7 8 9 8 8 9 7 7 9 9 11 13 9 7 6 7 8 8 9 8 9 9 8 6 3 5 5 6 6 7 8 8
4 1 3 1 3 3 5 2 7 6 8 6 6 4 7 2 7 9 9 10 11 10 7 7 8 7 8 10 10 10 9 10 9 10 8 6 7 6 6 6 6 7 8
3 2 2 4 4 5 3 7 1 6 8 10 9 8 8 9 9 9 9 9 12 9 5 4 7 10 9 10 10 10 10 9 10 8 9 7 5 5 7 6 3 5 6
5 2 2 3 5 6 2 3 8 7 4 1 10 7 11 11 10 8 7 9 3 3 5 7 9 8 9 10 10 10 10 9 9 9 9 9 9 8 8 6 5 5 5
4 4 4 6 3 4 4 5 4 8 5 5 3 8 6 11 14 7 9 4 2 5 7 8 7 7 7 7 7 9 11 10 10 10 10 10 10 10 10 10 11 4 3
6 4 4 7 4 4 4 6 6 4 5 5 5 7 8 9 7 5 2 7 8 8 8 8 8 8 8 7 8 8 8 9 10 10 11 10 10 10 10 11 10 10 9
3 4 1 7 3 4 5 5 5 5 4 5 4 6 1 6 6 5 5 6 6 6 7 8 8 8 8 8 8 8 9 9 10 11 11 11 12 11 10 10 10 9 10
5 4 4 4 4 2 5 6 4 4 5 4 4 5 7 6 4 5 5 5 5 5 6 7 6 6 7 8 8 9 10 10 11 11 12 12 12 12 10 11 11 11 8
6 5 4 5 1 0 7 4 4 5 5 5 4 4 4 4 4 4 4 4 5 5 5 6 6 7 8 8 8 8 10 10 11 11 12 12 12 11 11 11 11 12 11
7 5 5 5 3 4 6 4 4 3 3 5 4 4 4 3 4 3 4 4 4 5 5 5 6 8 8 8 7 8 8 9 10 11 14 12 12 13 11 11 11 13 10
5 5 6 5 4 4 3 5 4 4 5 4 4 5 4 4 4 3 4 4 4 5 5 5 5 8 8 8 8 12 9 5 9 8 10 13 14 17 12 10 12 11 7
2 6 6 5 5 4 5 5 5 5 4 5 5 5 5 5 5 4 4 5 4 5 5 4 4 7 10 7 9 8 4 6 10 9 10 11 12 12 11 12 15 12 12
Wind_Direction
191 181 183 227 216 252 296 300 302 303 297 304 310 311 315 324 340 337 333 325 336 325 313 307 312 309 327 316 320 312 318 287 280 294 271 266 272 271 297 291 318 319 324
200 216 226 243 258 278 288 295 301 315 316 304 293 299 318 325 337 326 324 349 330 321 317 317 328 322 316 297 342 328 311 298 298 311 296 291 229 281 267 279 265 236 258
190 207 211 249 256 291 354 330 329 314 315 311 322 321 332 324 325 331 343 341 326 316 308 338 332 318 338 341 341 321 316 322 320 310 312 301 3 21 342 315 311 278 243
257 266 275 49 15 329 342 355 3 7 354 350 348 343 343 334 330 353 336 331 320 313 344 338 322 310 318 327 311 314 340 324 310 304 308 301 263 61 341 1 338 311 338
42 46 37 39 38 31 27 343 318 326 327 311 309 298 290 306 26 352 343 333 317 320 334 331 336 337 23 353 334 344 323 326 322 317 317 319 3 350 357 5 326 317 324
81 83 104 101 208 25 329 315 313 320 313 308 303 300 286 324 45 36 8 331 313 317 325 330 325 32 5 280 276 341 308 303 303 320 312 329 348 331 342 347 333 329 314
103 92 92 330 355 340 338 325 315 311 304 322 332 333 333 353 42 24 351 325 307 314 327 320 320 340 17 354 348 316 307 290 228 287 300 315 319 344 349 333 320 314 299
125 102 360 340 320 303 321 357 344 348 341 316 329 350 346 22 43 13 340 317 311 341 328 329 321 359 34 4 338 324 313 306 297 281 280 295 294 329 312 300 290 279 270
42 350 342 0 340 334 355 357 332 332 340 352 12 358 353 348 50 15 349 321 335 329 323 344 350 17 29 16 329 323 316 306 322 338 301 297 286 270 268 285 285 292 295
28 14 343 338 354 345 349 342 346 355 339 329 341 336 346 341 94 48 2 334 340 330 317 323 60 13 -0 350 328 321 321 329 328 317 305 294 275 262 252 254 269 297 315
358 335 18 23 343 336 14 349 339 328 318 319 337 342 316 334 348 73 14 336 342 322 310 317 24 352 348 328 307 314 328 315 304 298 299 309 315 345 329 347 345 314 301
22 23 10 13 353 352 351 332 337 353 332 336 326 325 45 26 66 34 312 306 322 311 324 324 333 343 315 297 292 298 282 290 308 327 332 330 336 342 339 337 316 317 317
47 43 354 6 350 7 329 336 310 3 356 348 354 347 346 338 346 307 295 312 324 318 316 334 303 290 280 283 253 259 272 296 339 345 344 331 335 334 321 318 320 313 314
329 346 3 33 14 17 355 328 5 17 359 341 349 350 350 334 352 345 354 329 311 312 345 331 320 290 273 267 285 287 274 348 325 331 318 324 335 338 335 336 325 327 318
323 0 341 44 57 332 308 13 352 69 36 17 11 352 351 347 8 336 317 328 332 345 324 326 317 350 341 331 339 352 344 357 348 337 320 352 350 322 328 325 325 326 322
250 59 27 35 338 319 320 223 84 106 186 201 198 286 354 332 333 312 309 309 306 316 323 312 322 357 346 355 350 351 351 357 352 330 338 36 12 346 333 338 351 347 340
78 242 107 310 349 300 3 324 349 190 220 224 211 222 239 284 294 296 305 313 296 305 286 306 343 4 356 354 353 354 354 347 350 335 329 339 22 353 302 299 348 0 346
103 29 291 279 284 274 163 346 312 330 330 264 207 227 229 246 256 267 286 305 338 316 311 357 13 2 3 356 356 354 347 348 345 342 342 347 342 339 325 5 351 339 334
227 220 320 304 272 304 281 215 281 296 346 350 64 216 204 265 280 238 252 291 4 312 6 11 12 8 11 3 356 346 336 344 343 345 351 347 349 343 337 344 341 273 244
221 117 258 283 300 342 337 327 326 347 325 7 347 42 356 312 3 18 316 10 2 8 3 4 2 14 3 357 356 341 339 344 355 349 348 345 345 337 340 338 339 330 327
326 170 293 265 303 1 331 332 328 313 333 358 357 89 280 295 343 9 8 12 5 2 358 2 354 4 356 349 358 344 342 341 356 350 342 344 338 332 340 341 321 325 337
267 288 265 299 295 328 3 315 316 314 344 345 344 140 213 268 4 6 11 10 7 5 358 344 351 357 355 344 347 350 341 349 356 347 335 339 330 329 341 324 333 334 353
271 268 275 256 292 152 246 286 323 351 342 326 352 336 339 360 345 16 345 7 355 354 358 348 351 348 347 349 346 356 344 1 343 332 321 332 323 327 322 322 337 335 5
258 273 269 293 302 318 281 337 318 221 281 312 324 312 314 329 319 353 314 343 340 348 355 349 346 351 340 351 349 357 3 354 331 324 333 311 318 307 322 323 341 345 342
239 258 267 265 289 295 297 265 293 300 304 311 305 291 303 292 290 305 301 316 326 327 344 334 357 349 350 335 12 357 2 323 320 317 313 314 301 294 311 324 338 315 314
271 249 262 267 268 275 286 292 297 288 298 292 280 280 286 287 289 290 289 288 297 316 303 325 332 345 339 348 36 1 327 317 322 318 312 297 288 302 322 332 320 308 321